Simultaneous Nadir Overpasses (SNOs) Predictions

Prediction of SNOs near US between AQUA and NPP Satellite Orbit:

Table of predicted SNOs near US for the next 10.0 days since TLE Epoch: 5/28/2016
Index Date (AQUA) Time (AQUA) AQUA Lat,Lon Date (NPP) Time (NPP) NPP Lat,Lon Distance(km) Time Diff (sec)
1 05/29/2016 09:23:13 25.05,-113.08 05/29/2016 09:16:16 25.15,-113.46 39.86 417
2 06/01/2016 06:30:23 46.49, -65.03 06/01/2016 06:31:28 46.85, -67.00 155.57 65
3 06/01/2016 08:08:18 49.93, -88.38 06/01/2016 08:11:56 50.41, -90.85 183.77 218
4 06/01/2016 09:47:11 49.94,-113.10 06/01/2016 09:53:24 50.52,-116.18 228.18 373
5 06/03/2016 19:06:27 49.95, -92.55 06/03/2016 19:02:13 49.65, -94.40 137.26 254
6 06/03/2016 20:45:20 49.94,-117.27 06/03/2016 20:43:41 49.54,-119.73 182.57 99
7 06/06/2016 08:35:00 20.56,-101.79 06/06/2016 08:26:49 20.56,-101.93 14.14 491
8 06/06/2016 10:11:22 29.66,-124.29 06/06/2016 10:05:42 29.75,-124.93 62.92 340




NCC Satellite Simultaneous Nadir Overpasses (SNOs) Prediction Service
